Tracking 20624 objects as of 28-Mar-2020
HD Live streaming from Space Station
objects crossing your sky now

METEOR 2-17 DEB

Track METEOR 2-17 DEB now!
10-day predictions


NORAD ID: 35373
Int'l Code: 1988-005AH
Perigee: 911.9 km
Apogee: 940.0 km
Inclination: 82.5 °
Period: 103.4 minutes
Semi major axis: 7296 km
RCS: 0.0092 m2 (small)
Launch date: January 30, 1988
Source: Commonwealth of Independent States (former USSR) (CIS)
Launch site: PLESETSK MISSILE AND SPACE COMPLEX (PKMTR)

Note: This is SATELLITE DEBRIS
aabbcc
Your satellite tracking list
Your tracking list is empty




NASA's NSSDC Master Catalog

Two Line Element Set (TLE):
1 35373U 88005AH  20087.83343545  .00000818  00000-0  61951-3 0  9996
2 35373  82.5272 302.0977 0019230 311.9874  47.9653 13.92815310570802
Source of the keplerian elements: AFSPC